Ketchikan, AK

11:42 AM AKST on January 19, 2018 (GMT -0900)
Ketchikan International

Weather History for PAKT - October, 2013

Change the Weather History Date:

Friday, October 18, 2013

  Actual Average Record
Temperature  
Mean Temperature 46 °F -  
Max Temperature 48 °F 50 °F 59 °F (1960)
Min Temperature 43 °F 40 °F 28 °F (2004)
Degree Days  
Heating Degree Days 20    
Moisture  
Dew Point 44 °F    
Average Humidity 95    
Maximum Humidity 100    
Minimum Humidity 83    
Precipitation  
Precipitation 0.00 in - - ()
Sea Level Pressure  
Sea Level Pressure 30.32 in    
Wind  
Wind Speed 2 mph (NW)    
Max Wind Speed 8 mph    
Max Gust Speed -    
Visibility 10 miles    
Events      
Averages and records for this station are not official NWS values.
T = Trace of Precipitation, MM = Missing Value Source: NWS Daily Summary

Daily Weather History Graph

Daily Weather History Graph

Search for Another Location

Airport or City:

Trip Planner

Search our weather history database for the weather conditions in past years. The results will help you decide how hot, cold, wet, or windy it might be!

Date:

Astronomy

Oct. 18, 2013 Rise Set
Actual Time 7:23 AM AKDT 5:38 PM AKDT
Civil Twilight 6:46 AM AKDT 6:16 PM AKDT
Nautical Twilight 6:04 AM AKDT 6:58 PM AKDT
Astronomical Twilight 5:21 AM AKDT 7:40 PM AKDT
Moon 5:27 PM AKDT (10/18) 7:08 AM AKDT (10/18)
Length of Visible Light 11h 29m
Length of Day
10h 15m
Full, 100% of the Moon is Illuminated
Oct 18
Full
Oct 18
Full
Oct 26
Last Quarter
Nov 3
New
Nov 9
First Quarter

Hourly Weather History & Observations

Time (AKDT) Temp. Windchill Dew Point Humidity Pressure Visibility Wind Dir Wind Speed Gust Speed Precip Events Conditions
12:53 AM 44.1 °F - 44.1 °F 100% 30.34 in 10.0 mi Calm Calm - N/A   Overcast
1:53 AM 44.1 °F - 44.1 °F 100% 30.34 in 10.0 mi Calm Calm - N/A   Overcast
2:53 AM 44.1 °F - 44.1 °F 100% 30.34 in 7.0 mi Calm Calm - N/A   Overcast
3:53 AM 44.1 °F 42.5 °F 44.1 °F 100% 30.35 in 9.0 mi WNW 3.5 mph - N/A   Overcast
4:53 AM 44.1 °F 42.5 °F 44.1 °F 100% 30.34 in 10.0 mi NW 3.5 mph - N/A   Overcast
5:53 AM 44.1 °F - 44.1 °F 100% 30.33 in 10.0 mi Calm Calm - N/A   Overcast
6:13 AM 44.6 °F - 44.6 °F 100% 30.33 in 10.0 mi Calm Calm - N/A   Overcast
6:53 AM 44.1 °F 42.5 °F 44.1 °F 100% 30.33 in 10.0 mi WNW 3.5 mph - N/A   Overcast
7:53 AM 45.0 °F 43.5 °F 45.0 °F 100% 30.33 in 10.0 mi WNW 3.5 mph - N/A   Overcast
8:53 AM 45.0 °F - 45.0 °F 100% 30.34 in 10.0 mi Calm Calm - N/A   Overcast
9:53 AM 46.9 °F - 46.0 °F 97% 30.34 in 10.0 mi NW 4.6 mph - N/A   Overcast
10:53 AM 46.9 °F - 45.0 °F 93% 30.34 in 10.0 mi NW 5.8 mph - N/A   Overcast
11:53 AM 48.0 °F - 43.0 °F 83% 30.35 in 10.0 mi NW 6.9 mph - N/A   Overcast
12:53 PM 48.9 °F - 44.1 °F 83% 30.34 in 10.0 mi NNW 6.9 mph - N/A   Overcast
1:53 PM 48.0 °F - 44.1 °F 86% 30.33 in 10.0 mi NW 8.1 mph - N/A   Overcast
2:53 PM 48.0 °F - 44.1 °F 86% 30.33 in 10.0 mi NW 6.9 mph - N/A   Overcast
3:53 PM 48.0 °F - 45.0 °F 89% 30.32 in 10.0 mi West 5.8 mph - N/A   Overcast
3:56 PM 48.2 °F - 44.6 °F 87% 30.31 in 10.0 mi NW 4.6 mph - N/A   Overcast
4:51 PM 48.2 °F - 44.6 °F 87% 30.30 in 10.0 mi NW 4.6 mph - N/A   Overcast
4:53 PM 48.0 °F - 45.0 °F 89% 30.30 in 10.0 mi WNW 3.5 mph - N/A   Overcast
5:53 PM 46.0 °F - 44.1 °F 93% 30.30 in 10.0 mi Calm Calm - N/A   Scattered Clouds
6:53 PM 44.1 °F - 44.1 °F 100% 30.29 in 10.0 mi Calm Calm - N/A   Mostly Cloudy
7:53 PM 44.1 °F - 44.1 °F 100% 30.29 in 10.0 mi Calm Calm - N/A   Overcast
8:53 PM 43.0 °F - 43.0 °F 100% 30.29 in 10.0 mi Calm Calm - N/A   Mostly Cloudy
9:53 PM 44.1 °F - 44.1 °F 100% 30.28 in 10.0 mi Calm Calm - N/A   Mostly Cloudy
10:21 PM 44.6 °F - 44.6 °F 100% 30.27 in 10.0 mi Calm Calm - N/A   Overcast
10:53 PM 44.1 °F - 44.1 °F 100% 30.27 in 10.0 mi Calm Calm - N/A   Overcast
11:53 PM 44.1 °F - 44.1 °F 100% 30.27 in 10.0 mi Calm Calm - N/A   Scattered Clouds